Regional Weather Roundup
Issued by NWS

Home | Current Version | Previous Version | Graphics & Text | Print | Product List | Glossary On
Versions: 1 2 3 4 5 6 7 8 9 10 11 12 13 14 15 16 17 18 19 20 21 22 23 24 25 26 27 28 29 30 31 32 33 34 35 36 37 38 39 40 41 42 43 44 45 46 47 48 49 50
000
ASUS43 KDMX 261704
RWRIA

WEATHER ROUNDUP FOR IOWA
NATIONAL WEATHER SERVICE DES MOINES IA
  ISSUED BY NWS QUAD CITIES IA IL
1100 AM CST MON JAN 26 2015

NOTE: "FAIR" INDICATES FEW OR NO CLOUDS BELOW 12,000 FEET WITH NO
SIGNIFICANT WEATHER AND/OR OBSTRUCTIONS TO VISIBILITY.

* - THESE STATIONS ARE NOT NWS STATIONS...THUS NOT UNDER NWS
QUALITY CONTROL.  THEY ALSO DO NOT REPORT WEATHER SUCH
AS PRECIPITATION OR FOG.

IAZ001>003-012>014-020>022-031>034-043>046-261800-
   NORTHWEST IOWA

CITY           SKY/WX    TMP DP  RH WIND       PRES   REMARKS
CARROLL *      SUNNY     43  36  75 NW21G30   29.83R WCI  34
CHEROKEE *     SUNNY     42  36  80 NW12G21   29.86R WCI  35
DENNISON *     SUNNY     45  37  76 NW14      29.86R WCI  38
LE MARS *      SUNNY     43  37  81 NW14G21   29.89R WCI  36
ORANGE CITY *  SUNNY     41  36  81 NW14      29.87R WCI  33
SHELDON *      SUNNY     39  37  93 NW14      29.85R WCI  31
SIOUX CITY     SUNNY     46  37  71 NW18      29.89R
SPENCER        SUNNY     42  34  73 NW16      29.83R WCI  34
STORM LAKE *   SUNNY     41  36  81 NW20      29.85R WCI  32
$$

IAZ055>058-069>071-079>083-090>094-261800-
   SOUTHWEST IOWA

CITY           SKY/WX    TMP DP  RH WIND       PRES   REMARKS
ATLANTIC *     SUNNY     45  36  70 NW17G24   29.85S WCI  37
AUDUBON *      SUNNY     45  36  70 NW10G20   29.86R WCI  39
CLARINDA *     SUNNY     43  34  70 W9        29.90F WCI  37
COUNCIL BLFS * SUNNY     46  37  71 NW16G23   29.88R
CRESTON *      MOSUNNY   41  34  75 W17       29.85R WCI  32
HARLAN *       SUNNY     45  41  87 NW18G25   29.90R WCI  37
LAMONI         MOSUNNY   40  31  70 W14G25    29.87R WCI  32
RED OAK *      SUNNY     46  36  66 NW12      29.89R
SHENANDOAH *   SUNNY     46  36  66 W13       29.91R
$$

IAZ047>049-059>061-072>074-084-261800-
   CENTRAL IOWA

CITY           SKY/WX    TMP DP  RH WIND       PRES   REMARKS
AMES           SUNNY     42  32  67 NW18G26   29.80S WCI  34
ANKENY *       MOSUNNY   41  32  70 W16G22    29.81F WCI  33
BOONE *        SUNNY     41  34  75 W14G24    29.79R WCI  33
CHARITON *     PTSUNNY   39  32  75 W17       29.83R WCI  30
DES MOINES     MOSUNNY   43  32  65 W13G22    29.81S WCI  36
GRINNELL *     MOSUNNY   35  31  88 SW12G18   29.80F WCI  26
KNOXVILLE *    PTSUNNY   39  32  75 W16       29.82R WCI  30
MARSHALLTOWN   SUNNY     36  32  85 W13       29.79S WCI  27
NEWTON *       MOSUNNY   36  32  87 W14G21    29.80F WCI  27
PELLA *        MOSUNNY   38  32  78 SW10      29.83F WCI  31
PERRY *          N/A     42  35  76 NW14G20   29.82R WCI  35
$$

IAZ004>006-015-016-023>025-035-036-261800-
   NORTH CENTRAL IOWA

CITY           SKY/WX    TMP DP  RH WIND       PRES   REMARKS
ALGONA *       SUNNY     41  36  81 NW15      29.79S WCI  33
CLARION *      SUNNY     39  37  93 NW15      29.78S WCI  31
ESTHERVILLE    SUNNY     38  34  85 NW13      29.80R WCI  30
FORT DODGE *   SUNNY     41  34  75 NW9G20    29.81R WCI  35
MASON CITY     SUNNY     40  34  79 NW17      29.76S WCI  31
FOREST CITY *  FAIR      39  34  81 NW15G23   29.76R WCI  31
WEBSTER CITY * SUNNY     41  39  93 NW20G26   29.78R WCI  32
IOWA FALLS *   FAIR      38  32  80 W13       29.79R WCI  30
$$

IAZ007>011-017>019-026>030-037>042-050>054-066-261800-
   NORTHEAST IOWA

CITY           SKY/WX    TMP DP  RH WIND       PRES   REMARKS
CEDAR RAPIDS   CLOUDY    28  26  92 S14       29.80F WCI  17
CHARLES CITY * CLOUDY    32  32 100 SW8       29.76F WCI  25
CLINTON *      PTSUNNY   21  18  86 S10       29.92F WCI  10
DECORAH *      CLOUDY    27  25  93 SW9G17    29.75F FOG     WCI  17
DUBUQUE        CLOUDY    20  17  88 S17       29.83F WCI   5
MONTICELLO *   CLOUDY    25  25 100 S14       29.83F WCI  13
OELWEIN *      CLOUDY    27  25  93 S16       29.79F WCI  14
WATERLOO       CLOUDY    32  30  92 S9        29.78F WCI  24
$$

IAZ064-065-067-068-078-261800-
   EAST CENTRAL IOWA

CITY           SKY/WX    TMP DP  RH WIND       PRES   REMARKS
DAVENPORT      LGT SNOW  23  19  85 S12       29.88F FOG     WCI  12
IOWA CITY      CLOUDY    28  25  88 SE12      29.86F WCI  18
MT. PLEASANT * CLOUDY    31  28  90 S12       29.89F WCI  22
MUSCATINE *    CLOUDY    28  25  86 SE10      29.89F WCI  19
QUAD CITIES    LGT SNOW  24  21  88 S5        29.89F VSB 1   WCI  18
$$

IAZ062-063-075>077-085>089-095>099-261800-
   SOUTHEAST IOWA

CITY           SKY/WX    TMP DP  RH WIND       PRES   REMARKS
BURLINGTON     CLOUDY    30  27  88 S8        29.92F WCI  22
FAIRFIELD *    CLOUDY    34  30  86 S13       29.85F WCI  25
FORT MADISON * CLOUDY    34  28  80 S9        29.91R WCI  26
KEOKUK *       CLOUDY    32  28  86 S8        29.92R WCI  25
OSKALOOSA *    FAIR      35  31  87 SW9       29.84F WCI  28
OTTUMWA        PTSUNNY   36  31  82 SW9       29.82F WCI  29
WASHINGTON *   CLOUDY    32  32 100 S14       29.84F WCI  22
$$

ABBREVIATIONS USED IN REMARKS
   TC - TEMPERATURES IN CELSIUS
  WCI - WIND CHILL INDEX
   HX - HEAT INDEX
  VSB - VISIBILITY
$$



USA.gov is the U.S. government's official web portal to all federal, state and local government web resources and services.